sat.trackr.live / text

‹ back to catalog

STARLINK-31315

NORAD 58884 · 2024-020J

PAYLOAD ACTIVE UNKNOWN

§ Identity

Operator
Country
US
Launch date
2024-01-29
Launch site
AFWTR
Launch vehicle
Mass (kg)
RCS (m²)

Purposes: comms

External: N2YO · Heavens-Above · Gunter

§ Orbital elements

Epoch: 2026-09-19T02:20:31.947072Z

Period
93.85 min
Inclination
53.1596°
Eccentricity
0.0001256
Mean motion
15.34394053 rev/d
Perigee alt
461.9 km
Apogee alt
463.6 km
Semi-major
6,840.9 km
B*
1.1443e-4
RAAN
116.1718°
Arg perigee
93.9388°
Mean anomaly
266.1758°
Rev number
14,807

§ Raw data

STARLINK-313151 58884U 24020J   26262.09759198  .00003491  00000+0  11443-3 0  99992 58884  53.1596 116.1718 0001256  93.9388 266.1758 15.34394053148075

JSON: /api/v1/satellites/58884 · /tle

For live sub-satellite position, see the globe view (requires WebGL).

§ Visibility from observer

Set your observer location to see the next 7 days of passes ≥ 10°. The values pass through the URL so the page stays shareable.

No JS? Fill the form by hand. The geolocation button needs JavaScript.